Tracking 31027 objects as of 19-Jul-2025
HD Live streaming from Space Station
objects crossing your sky now

ARIANE 5 R/B

Track ARIANE 5 R/B now!


NORAD ID: 41593
Int'l Code: 2016-039C
Perigee: 300.4 km
Apogee: 33,747.8 km
Inclination: 6.0 °
Period: 593.5 minutes
Semi major axis: 23395 km
RCS: Unknown
Launch date: June 18, 2016
Source: France (FR)
Launch site: FRENCH GUIANA (FRGUI)

Note: This is a ROCKET BODY
Your satellite tracking list
SL-12 R/B(AUX MOTOR)
Track 1 satellite(s)




NASA's NSSDC Master Catalog

Two Line Element Set (TLE):
1 41593U 16039C   25199.01238973  .00001722  00000-0  90710-3 0  9992
2 41593   6.0065  81.8405 7148359  94.4117 342.4901  2.42613705 77478
Source of the keplerian elements: AFSPC